Weather History for KDEC - September, 2013

Change the Weather History Date:

Friday, September 27, 2013

  Actual Average Record
Temperature  
Mean Temperature 65 °F 62 °F  
Max Temperature 83 °F 74 °F 93 °F (1998)
Min Temperature 46 °F 49 °F 43 °F (2001)
Degree Days  
Heating Degree Days 0 5  
Month to date heating degree days 34 49  
Since 1 July heating degree days 44 55  
Cooling Degree Days 0 2  
Month to date cooling degree days 165 105  
Year to date cooling degree days 1037 1023  
Growing Degree Days 14 (Base 50)    
Moisture  
Dew Point 48 °F    
Average Humidity 58    
Maximum Humidity 86    
Minimum Humidity 30    
Precipitation  
Precipitation 0.00 in 0.07 in 0.41 in (2011)
Month to date precipitation 0.53 2.67  
Year to date precipitation 26.90 28.98  
Sea Level Pressure  
Sea Level Pressure 30.09 in    
Wind  
Wind Speed 5 mph (SE)    
Max Wind Speed 15 mph    
Max Gust Speed 23 mph    
Visibility 10 miles    
Events      
T = Trace of Precipitation, MM = Missing Value Source: NWS Daily Summary

Daily Weather History Graph

Daily Weather History Graph

Search for Another Location

Airport or City:

Trip Planner

Search our weather history database for the weather conditions in past years. The results will help you decide how hot, cold, wet, or windy it might be!

Date:

Astronomy

Sep. 27, 2013 Rise Set
Actual Time 6:48 AM CDT 6:43 PM CDT
Civil Twilight 6:21 AM CDT 7:10 PM CDT
Nautical Twilight 5:49 AM CDT 7:42 PM CDT
Astronomical Twilight 5:17 AM CDT 8:13 PM CDT
Moon No Moon Rise 2:21 PM CDT
Length of Visible Light 12h 49m
Length of Day
11h 55m
Last Quarter, 45% of the Moon is Illuminated
Sep 27
Last Quarter
Oct 4
New
Oct 11
First Quarter
Oct 18
Full
Oct 26
Last Quarter

Hourly Weather History & Observations

Time (CDT) Temp. Dew Point Humidity Pressure Visibility Wind Dir Wind Speed Gust Speed Precip Events Conditions
12:54 AM 52.0 °F 46.0 °F 80% 30.07 in 10.0 mi East 4.6 mph - N/A   Clear
1:54 AM 50.0 °F 45.0 °F 83% 30.08 in 10.0 mi East 5.8 mph - N/A   Clear
2:54 AM 53.1 °F 46.9 °F 80% 30.08 in 10.0 mi Calm Calm - N/A   Clear
3:54 AM 48.0 °F 44.1 °F 86% 30.09 in 10.0 mi ENE 6.9 mph - N/A   Clear
4:54 AM 48.9 °F 44.1 °F 83% 30.10 in 10.0 mi Calm Calm - N/A   Clear
5:54 AM 48.9 °F 45.0 °F 86% 30.12 in 10.0 mi Calm Calm - N/A   Clear
6:54 AM 46.9 °F 43.0 °F 86% 30.14 in 9.0 mi Calm Calm - N/A   Clear
7:54 AM 52.0 °F 46.9 °F 83% 30.16 in 9.0 mi Calm Calm - N/A   Clear
8:54 AM 62.1 °F 53.1 °F 72% 30.16 in 10.0 mi Calm Calm - N/A   Clear
9:54 AM 71.1 °F 53.1 °F 53% 30.15 in 10.0 mi South 4.6 mph - N/A   Clear
10:54 AM 75.9 °F 50.0 °F 40% 30.15 in 10.0 mi Variable 6.9 mph - N/A   Clear
11:54 AM 78.1 °F 48.0 °F 35% 30.13 in 10.0 mi SE 9.2 mph - N/A   Clear
12:54 PM 80.1 °F 46.9 °F 31% 30.11 in 10.0 mi ESE 8.1 mph - N/A   Clear
1:54 PM 81.0 °F 46.9 °F 30% 30.09 in 10.0 mi SSE 6.9 mph - N/A   Clear
2:54 PM 82.0 °F 48.0 °F 30% 30.06 in 10.0 mi SSE 12.7 mph - N/A   Clear
3:54 PM 82.9 °F 48.9 °F 31% 30.05 in 10.0 mi SE 12.7 mph - N/A   Clear
4:54 PM 81.0 °F 46.9 °F 30% 30.05 in 10.0 mi SSE 9.2 mph - N/A   Clear
5:54 PM 79.0 °F 50.0 °F 36% 30.05 in 10.0 mi SSE 8.1 mph - N/A   Clear
6:54 PM 72.0 °F 50.0 °F 46% 30.06 in 10.0 mi SSE 5.8 mph - N/A   Clear
7:54 PM 66.0 °F 51.1 °F 59% 30.06 in 10.0 mi SE 4.6 mph - N/A   Clear
8:54 PM 62.1 °F 51.1 °F 67% 30.07 in 10.0 mi SE 3.5 mph - N/A   Clear
9:54 PM 60.1 °F 51.1 °F 72% 30.07 in 10.0 mi SE 3.5 mph - N/A   Clear
10:54 PM 59.0 °F 51.1 °F 75% 30.07 in 10.0 mi South 3.5 mph - N/A   Clear
11:54 PM 55.9 °F 51.1 °F 84% 30.07 in 10.0 mi Calm Calm - N/A   Clear